Hourly Weather Bolshoy Atmas

Today, 1 August, Sunday

Time Temperature Precipitation Wind Pressure Humidity
00:00 +20°C° 0 mm 3 mps 747 mmHg 74%
01:00 +20°C° 0 mm 3 mps 747 mmHg 75%
02:00 +20°C° 0 mm 3 mps 747 mmHg 76%
03:00 +19°C° 0 mm 3 mps 748 mmHg 80%
04:00 +20°C° 0 mm 3 mps 748 mmHg 76%
05:00 +20°C° 0 mm 3 mps 748 mmHg 73%
06:00 +21°C° 0 mm 3 mps 748 mmHg 69%
07:00 +22°C° 0 mm 4 mps 749 mmHg 64%
08:00 +25°C° 0 mm 4 mps 749 mmHg 58%
09:00 +26°C° 0 mm 4 mps 749 mmHg 53%
10:00 +27°C° 0 mm 4 mps 750 mmHg 49%
11:00 +28°C° 0 mm 5 mps 750 mmHg 46%
12:00 +29°C° 0 mm 5 mps 750 mmHg 42%
13:00 +29°C° 0 mm 5 mps 750 mmHg 42%
14:00 +29°C° 0 mm 5 mps 750 mmHg 41%
15:00 +29°C° 0 mm 5 mps 750 mmHg 41%
16:00 +28°C° 0 mm 4 mps 750 mmHg 45%
17:00 +27°C° 0 mm 3 mps 750 mmHg 49%
18:00 +26°C° 0 mm 2 mps 751 mmHg 53%
19:00 +25°C° 0 mm 2 mps 751 mmHg 55%
20:00 +23°C° 0 mm 2 mps 751 mmHg 58%
21:00 +21°C° 0 mm 2 mps 751 mmHg 60%
22:00 +22°C° 0 mm 1 mps 751 mmHg 61%
23:00 +21°C° 0 mm 1 mps 751 mmHg 63%

Tomorrow, 2 August, Monday

Time Temperature Precipitation Wind Pressure Humidity
00:00 +21°C° 0 mm 1 mps 751 mmHg 64%
01:00 +20°C° 0 mm 1 mps 751 mmHg 65%
02:00 +20°C° 0 mm 1 mps 751 mmHg 66%
03:00 +20°C° 0 mm 1 mps 752 mmHg 67%
04:00 +21°C° 0 mm 1 mps 752 mmHg 65%
05:00 +21°C° 0 mm 1 mps 752 mmHg 64%
06:00 +21°C° 0 mm 2 mps 752 mmHg 63%
07:00 +24°C° 0 mm 2 mps 752 mmHg 59%
08:00 +26°C° 0 mm 2 mps 752 mmHg 55%
09:00 +28°C° 0 mm 3 mps 752 mmHg 51%
10:00 +29°C° 0 mm 3 mps 752 mmHg 48%
11:00 +29°C° 0 mm 3 mps 752 mmHg 45%
12:00 +30°C° 0 mm 3 mps 752 mmHg 43%
13:00 +31°C° 0 mm 3 mps 751 mmHg 41%
14:00 +31°C° 0 mm 3 mps 751 mmHg 40%
15:00 +31°C° 0 mm 3 mps 751 mmHg 39%
16:00 +31°C° 0 mm 3 mps 751 mmHg 42%
17:00 +30°C° 0 mm 2 mps 750 mmHg 46%
18:00 +29°C° 0 mm 2 mps 750 mmHg 49%
19:00 +28°C° 0 mm 2 mps 750 mmHg 51%
20:00 +27°C° 0 mm 2 mps 750 mmHg 53%
21:00 +25°C° 0 mm 2 mps 750 mmHg 55%
22:00 +25°C° 0 mm 2 mps 750 mmHg 56%
23:00 +24°C° 0 mm 2 mps 750 mmHg 57%

Day after tomorrow, 3 August, Tuesday

Time Temperature Precipitation Wind Pressure Humidity
00:00 +23°C° 0 mm 2 mps 750 mmHg 58%
01:00 +23°C° 0 mm 2 mps 750 mmHg 58%
02:00 +23°C° 0 mm 2 mps 750 mmHg 58%
03:00 +23°C° 0 mm 2 mps 750 mmHg 58%
04:00 +23°C° 0 mm 2 mps 750 mmHg 57%
05:00 +24°C° 0 mm 2 mps 750 mmHg 57%
06:00 +25°C° 0 mm 2 mps 750 mmHg 57%
07:00 +27°C° 0 mm 2 mps 750 mmHg 51%
08:00 +29°C° 0 mm 3 mps 750 mmHg 46%
09:00 +31°C° 0 mm 3 mps 749 mmHg 41%
10:00 +32°C° 0 mm 4 mps 749 mmHg 39%
11:00 +33°C° 0 mm 4 mps 749 mmHg 37%
12:00 +34°C° 0 mm 4 mps 749 mmHg 35%
13:00 +35°C° 0 mm 4 mps 749 mmHg 32%
14:00 +35°C° 0 mm 3 mps 748 mmHg 29%
15:00 +36°C° 0 mm 3 mps 748 mmHg 26%
16:00 +35°C° 0 mm 3 mps 748 mmHg 31%
17:00 +33°C° 0 mm 4 mps 747 mmHg 36%
18:00 +30°C° 0 mm 4 mps 747 mmHg 42%
19:00 +30°C° 0 mm 4 mps 747 mmHg 42%
20:00 +29°C° 0 mm 3 mps 748 mmHg 42%
21:00 +28°C° 0 mm 3 mps 748 mmHg 42%
22:00 +27°C° 0 mm 4 mps 748 mmHg 49%
23:00 +25°C° 0 mm 4 mps 748 mmHg 55%

4 August, Wednesday

Time Temperature Precipitation Wind Pressure Humidity
00:00 +23°C° 0 mm 4 mps 748 mmHg 62%
01:00 +22°C° 0 mm 3 mps 748 mmHg 68%
02:00 +21°C° 0 mm 2 mps 748 mmHg 74%
03:00 +22°C° 0 mm 1 mps 748 mmHg 81%
04:00 +22°C° 0 mm 1 mps 748 mmHg 82%
05:00 +21°C° 0 mm 2 mps 748 mmHg 83%
06:00 +21°C° 0 mm 3 mps 748 mmHg 84%
07:00 +22°C° 0 mm 3 mps 748 mmHg 79%
08:00 +25°C° 0 mm 4 mps 748 mmHg 73%
09:00 +26°C° 0 mm 4 mps 748 mmHg 68%
10:00 +26°C° 0 mm 4 mps 749 mmHg 66%
11:00 +26°C° 0 mm 4 mps 749 mmHg 64%
12:00 +27°C° 0 mm 5 mps 749 mmHg 61%
13:00 +27°C° 0 mm 4 mps 749 mmHg 58%
14:00 +28°C° 0 mm 4 mps 749 mmHg 55%
15:00 +28°C° 0 mm 4 mps 749 mmHg 52%
16:00 +28°C° 0 mm 4 mps 749 mmHg 55%
17:00 +27°C° 0 mm 4 mps 749 mmHg 59%
18:00 +26°C° 0 mm 4 mps 749 mmHg 62%
19:00 +23°C° 0 mm 4 mps 750 mmHg 69%
20:00 +22°C° 0 mm 3 mps 750 mmHg 75%
21:00 +20°C° 0 mm 3 mps 750 mmHg 82%
22:00 +19°C° 0 mm 3 mps 751 mmHg 84%
23:00 +19°C° 0 mm 2 mps 751 mmHg 85%

5 August, Thursday

Time Temperature Precipitation Wind Pressure Humidity
00:00 +18°C° 0 mm 2 mps 751 mmHg 87%
01:00 +18°C° 0 mm 2 mps 751 mmHg 87%
02:00 +17°C° 0 mm 2 mps 752 mmHg 87%
03:00 +17°C° 0 mm 2 mps 752 mmHg 87%
04:00 +18°C° 0 mm 3 mps 752 mmHg 83%
05:00 +19°C° 0 mm 3 mps 752 mmHg 79%
06:00 +20°C° 0 mm 3 mps 752 mmHg 75%
07:00 +21°C° 0 mm 3 mps 752 mmHg 67%
08:00 +24°C° 0 mm 3 mps 753 mmHg 58%
09:00 +25°C° 0 mm 3 mps 753 mmHg 50%
10:00 +26°C° 0 mm 4 mps 753 mmHg 45%
11:00 +27°C° 0 mm 4 mps 753 mmHg 41%
12:00 +28°C° 0 mm 4 mps 753 mmHg 37%
13:00 +27°C° 0 mm 5 mps 753 mmHg 36%
14:00 +27°C° 0 mm 5 mps 753 mmHg 36%
15:00 +27°C° 0 mm 5 mps 753 mmHg 35%
16:00 +26°C° 0 mm 5 mps 753 mmHg 39%
17:00 +26°C° 0 mm 4 mps 753 mmHg 42%
18:00 +25°C° 0 mm 4 mps 753 mmHg 45%
19:00 +22°C° 0 mm 4 mps 754 mmHg 49%
20:00 +20°C° 0 mm 4 mps 754 mmHg 54%
21:00 +19°C° 0 mm 3 mps 754 mmHg 58%
22:00 +18°C° 0 mm 3 mps 754 mmHg 59%
23:00 +17°C° 0 mm 3 mps 754 mmHg 60%

6 August, Friday

Time Temperature Precipitation Wind Pressure Humidity
00:00 +16°C° 0 mm 3 mps 754 mmHg 62%
01:00 +16°C° 0 mm 3 mps 755 mmHg 61%
02:00 +14°C° 0 mm 3 mps 755 mmHg 61%
03:00 +14°C° 0 mm 3 mps 755 mmHg 61%
04:00 +16°C° 0 mm 3 mps 755 mmHg 59%
05:00 +16°C° 0 mm 3 mps 755 mmHg 57%
06:00 +17°C° 0 mm 3 mps 755 mmHg 55%
07:00 +19°C° 0 mm 3 mps 755 mmHg 50%
08:00 +21°C° 0 mm 4 mps 756 mmHg 44%
09:00 +23°C° 0 mm 4 mps 756 mmHg 39%
10:00 +25°C° 0 mm 4 mps 756 mmHg 36%
11:00 +26°C° 0 mm 4 mps 756 mmHg 34%
12:00 +26°C° 0 mm 4 mps 756 mmHg 31%
13:00 +26°C° 0 mm 4 mps 756 mmHg 31%
14:00 +27°C° 0 mm 4 mps 756 mmHg 31%
15:00 +27°C° 0 mm 4 mps 756 mmHg 31%
16:00 +26°C° 0 mm 4 mps 756 mmHg 34%
17:00 +25°C° 0 mm 4 mps 756 mmHg 37%
18:00 +23°C° 0 mm 4 mps 756 mmHg 41%
19:00 +22°C° 0 mm 4 mps 756 mmHg 43%
20:00 +21°C° 0 mm 4 mps 757 mmHg 45%
21:00 +19°C° 0 mm 3 mps 757 mmHg 47%
22:00 +19°C° 0 mm 3 mps 757 mmHg 47%
23:00 +18°C° 0 mm 3 mps 757 mmHg 47%
Show more

We Need Your Consent

Meteoprog and our Service Providers may store and access personal data such as cookies, device identifiers or other similar technologies on your device and process such data to personalise content and ads, as well as provide social media features and to analyse the traffic.

  • Store and/or access information on your device

    Cookies, device identifiers or other information can be stored or accessed on your device for the purposes indicated above.

  • Personalised ads and content, ad and content measurement, audience insights, and products development

    Ads and content can be personalised based on a profile. More data can be added to better personalise ads and content. Ad and content performance can be measured. Insights about the audience who saw the ads and content can be derived. Such data can be used to develop or improve user’s experience, systems and software.

By clicking ‘I Agree’ you will allow the use of indicated cookies, device identifiers, web beacons or other similar technologies. Your settings can be changed in the browser on your device.

For certain purposes, legitimate interests may be relied on, rather than consent. You can read more about this in our Privacy and Cookie Policy.